This is the latest recevied weather packets stored in our database for station/object KJ6APE. If no packets are shown the sender has not sent any weather packets the latest 10 day(s).
| Time | Temp. | Humidity | Pressure | Rain* | Wind** | Luminosity | Snow |
|---|---|---|---|---|---|---|---|
| 1777936070 | 18.33° C | 50% | 1014.9 hPa | 0 mm | - | 254 W/m² | - |
| 1777935768 | 18.33° C | 52% | 1015 hPa | 0 mm | - | 314 W/m² | - |
| 1777935467 | 18.33° C | 50% | 1015.1 hPa | 0 mm | - | 236 W/m² | - |
| 1777935163 | 18.33° C | 50% | 1015 hPa | 0 mm | - | 243 W/m² | - |
| 1777934860 | 18.33° C | 50% | 1014.7 hPa | 0 mm | - | 270 W/m² | - |
| 1777934557 | 18.33° C | 50% | 1015 hPa | 0 mm | - | 317 W/m² | - |
| 1777934253 | 18.33° C | 51% | 1015.1 hPa | 0 mm | - | 300 W/m² | - |
| 1777933949 | 18.33° C | 52% | 1015 hPa | 0 mm | - | 285 W/m² | - |
| 1777933646 | 18.33° C | 51% | 1015.1 hPa | 0 mm | - | 253 W/m² | - |
| 1777933343 | 18.33° C | 50% | 1015.1 hPa | 0 mm | - | 271 W/m² | - |
| 1777933040 | 18.33° C | 51% | 1015.1 hPa | 0 mm | - | 307 W/m² | - |
| 1777932738 | 18.33° C | 52% | 1015 hPa | 0 mm | - | 353 W/m² | - |
| 1777932434 | 18.89° C | 50% | 1014.9 hPa | 0 mm | - | 401 W/m² | - |
| 1777932132 | 18.89° C | 50% | 1015.2 hPa | 0 mm | - | 431 W/m² | - |
| 1777931828 | 18.89° C | 50% | 1015.3 hPa | 0 mm | - | 369 W/m² | - |
| 1777931525 | 18.89° C | 50% | 1015 hPa | 0 mm | - | 319 W/m² | - |
| 1777931220 | 18.89° C | 49% | 1015.2 hPa | 0 mm | - | 327 W/m² | - |
| 1777930917 | 18.89° C | 51% | 1015.1 hPa | 0 mm | - | 331 W/m² | - |
| 1777930614 | 18.89° C | 49% | 1015.2 hPa | 0 mm | - | 364 W/m² | - |
| 1777930311 | 18.89° C | 50% | 1015.3 hPa | 0 mm | - | 351 W/m² | - |
| 1777930007 | 18.33° C | 50% | 1015.2 hPa | 0 mm | - | 380 W/m² | - |
| 1777929704 | 18.33° C | 51% | 1015.3 hPa | 0 mm | - | 303 W/m² | - |
| 1777929402 | 18.33° C | 53% | 1015.2 hPa | 0 mm | - | 310 W/m² | - |
| 1777929097 | 18.33° C | 51% | 1015.3 hPa | 0 mm | - | 303 W/m² | - |
| 1777928796 | 18.33° C | 51% | 1015.3 hPa | 0 mm | - | 310 W/m² | - |
* Rain latest hour (hover to see other rain measurements)
** Current wind speed in m/s (hover to see current wind gust speed)